Wind_Speed
18 19 17 16 15 14 14 13 12 11 11 11 12 13 13 14 15 16 17 17 17 18 19 20 21 22 23 24 26 27 26 24 23 23 23 24 24 21 19 19 21 21 20
22 20 18 15 15 14 13 11 11 11 10 11 12 13 13 14 14 15 15 17 17 17 19 19 20 22 25 27 29 29 29 25 22 20 21 22 20 17 18 20 19 18 19
25 22 19 16 15 15 14 13 12 12 13 12 12 13 14 15 15 16 16 16 16 18 19 18 18 23 25 26 26 24 25 25 23 17 17 19 19 18 18 19 18 18 16
26 22 20 18 16 16 14 15 14 14 14 13 13 13 14 14 15 15 16 16 16 19 18 19 19 21 25 26 25 23 22 22 16 14 15 18 19 19 18 18 17 18 16
25 22 21 19 17 15 15 15 14 15 15 15 14 14 14 15 15 15 16 16 18 17 18 18 21 21 25 26 23 21 20 18 17 12 14 17 19 17 16 15 15 15 15
24 22 21 19 17 15 14 14 14 14 15 15 15 15 14 15 15 15 16 16 17 16 17 17 19 22 24 23 21 18 19 15 8 7 14 15 17 16 14 14 15 15 14
23 22 21 18 16 15 14 13 13 14 15 14 14 15 13 15 15 15 16 16 17 18 17 18 17 21 21 19 20 19 16 14 12 11 13 15 16 14 15 15 14 14 13
24 22 20 17 15 14 14 13 13 14 13 13 13 14 15 16 15 16 16 16 16 13 15 17 18 19 21 21 21 19 16 12 12 13 13 14 13 13 14 13 13 13 13
23 18 18 17 15 15 15 14 14 14 15 15 16 15 15 17 17 18 17 17 19 20 20 19 20 19 21 20 21 18 16 9 14 13 12 13 13 13 13 12 10 11 11
21 16 17 15 14 15 15 16 17 17 18 19 20 18 16 18 18 19 19 21 21 22 21 22 24 24 25 19 17 15 15 11 10 9 9 12 12 12 10 9 9 9 9
19 17 17 14 15 15 16 19 22 22 21 20 20 21 20 19 21 19 21 23 21 20 21 24 25 23 20 16 10 14 12 8 4 6 7 9 10 9 9 9 9 8 8
24 15 15 13 20 18 20 22 25 21 19 17 17 19 20 18 19 20 21 21 20 16 16 15 15 17 17 13 9 13 12 6 8 9 7 8 8 7 7 7 7 7 7
26 19 20 20 19 16 24 24 19 17 18 18 17 18 15 17 17 20 20 18 16 12 14 10 12 12 10 13 11 7 12 6 15 14 9 8 8 8 8 7 7 7 6
21 24 23 21 20 12 20 21 23 20 20 16 16 18 17 18 18 15 16 13 11 8 6 10 14 14 10 13 14 12 11 4 12 14 13 11 10 8 8 7 6 6 7
24 24 22 17 21 16 16 22 20 18 14 16 15 13 12 9 14 10 12 10 10 10 9 12 12 12 12 11 10 8 12 8 7 10 14 16 14 10 8 8 7 8 8
29 26 21 23 17 13 10 15 16 17 20 15 15 17 16 11 13 12 9 13 13 9 9 11 13 10 10 10 9 10 5 3 7 7 10 12 15 16 12 11 10 9 9
31 25 19 17 20 19 21 20 16 16 15 12 14 16 15 12 13 12 13 13 7 7 6 9 11 12 8 12 11 3 6 4 4 5 4 7 11 13 14 14 12 12 11
28 22 17 20 24 22 25 21 16 16 17 12 9 16 13 11 10 14 15 12 7 7 12 10 8 8 9 10 9 7 3 9 6 5 3 7 7 9 12 14 15 12 11
23 18 17 25 21 22 21 16 14 18 16 15 11 10 10 10 6 11 12 8 6 9 9 12 6 6 4 3 6 5 2 0 4 5 5 6 6 8 12 10 13 12 12
21 21 19 16 25 23 17 15 15 16 14 13 10 7 8 12 11 8 11 7 7 11 6 9 10 7 9 4 3 3 7 3 2 2 2 6 7 9 12 5 8 8 10
21 20 20 18 21 20 20 16 14 13 12 15 11 7 4 11 9 10 9 8 8 8 8 8 9 5 5 4 3 1 4 5 5 4 5 5 4 5 10 7 6 3 7
24 23 22 22 22 22 19 17 15 12 11 8 9 5 9 7 6 11 10 11 7 11 10 4 3 5 7 7 1 2 2 4 4 5 3 4 3 4 3 7 6 8 7
25 25 22 24 23 22 23 16 9 12 15 13 10 9 10 6 9 9 11 8 6 9 10 10 6 4 6 7 9 6 5 4 7 5 7 6 8 4 2 3 8 10 10
27 25 31 25 22 23 23 15 13 13 18 17 9 10 9 8 6 6 10 9 10 10 11 7 5 4 4 3 3 5 7 6 3 4 8 2 7 5 5 3 5 4 9
30 27 29 29 24 26 22 17 17 16 12 13 13 13 9 10 8 6 7 10 11 8 13 9 4 5 5 4 3 4 4 4 4 6 7 6 6 5 5 3 2 4 7
32 28 29 29 26 30 25 23 20 18 14 8 15 17 8 8 11 9 8 9 8 11 12 11 6 8 8 4 1 2 4 7 8 8 6 4 7 5 4 3 1 1 4
Wind_Direction
147 148 139 126 118 116 115 112 107 97 94 91 91 92 92 92 91 95 99 95 95 99 101 100 95 97 98 95 95 95 92 90 89 96 95 96 96 92 91 85 86 82 80
146 141 138 131 124 117 111 107 105 101 99 97 94 94 98 101 99 95 99 104 99 95 98 98 93 94 97 97 97 97 94 87 80 92 97 97 94 90 90 85 85 86 82
143 136 135 129 123 119 116 106 99 96 95 97 101 101 100 101 105 103 102 102 100 99 98 95 92 98 102 99 96 95 89 89 75 73 95 92 91 93 86 86 81 80 87
139 137 131 128 123 120 111 103 99 96 97 97 100 105 104 102 104 104 106 104 106 101 99 99 97 102 109 102 95 89 88 91 97 80 80 91 92 88 85 85 78 79 84
136 136 133 128 125 120 112 107 105 100 99 100 98 104 103 106 111 109 108 107 104 105 96 89 101 112 115 109 104 101 98 100 105 95 86 88 92 87 83 87 87 83 78
134 136 132 127 121 118 112 108 105 102 101 103 98 97 106 110 112 110 109 111 107 105 92 93 105 112 115 109 106 103 94 90 135 93 83 92 92 88 87 87 86 83 77
140 135 131 125 121 117 114 109 108 108 108 106 107 108 110 113 115 116 114 114 110 106 95 95 112 111 114 112 96 106 88 72 83 99 98 93 90 88 89 91 83 81 80
143 139 133 126 121 120 119 114 113 111 110 107 105 116 119 116 114 116 113 110 103 101 87 93 100 99 112 110 100 100 92 53 76 88 92 93 91 92 94 89 84 76 80
140 137 133 130 128 121 117 116 110 109 108 104 100 108 116 117 118 116 114 109 99 90 89 93 93 97 113 112 106 104 104 86 77 75 89 89 92 96 95 88 78 79 81
123 120 125 124 125 121 118 112 109 114 110 107 103 102 117 118 118 117 116 109 97 87 91 99 102 105 110 116 108 104 116 108 43 50 81 90 94 89 94 91 81 80 80
128 111 119 118 112 118 114 112 114 115 116 107 101 97 102 116 120 120 118 111 101 90 93 95 101 100 102 113 114 100 124 109 61 74 63 85 94 93 88 90 87 82 79
145 126 110 116 115 118 113 116 115 115 107 96 110 102 96 111 118 119 118 111 102 97 104 104 106 98 93 93 100 120 144 87 55 50 54 76 86 87 88 87 82 78 73
149 133 125 121 114 110 115 113 122 109 101 108 109 115 108 112 118 121 123 116 117 111 97 108 95 83 107 99 86 104 156 91 55 41 53 67 72 70 67 65 63 64 64
149 139 134 127 134 151 115 116 123 112 108 107 120 116 123 130 124 124 116 125 133 117 130 109 100 84 74 102 87 85 188 84 57 44 51 58 58 59 61 59 56 55 54
142 152 145 141 146 146 129 125 122 111 121 137 125 143 150 155 143 124 129 125 127 94 73 112 109 101 93 103 90 119 100 92 60 52 52 55 60 58 58 58 57 57 56
151 152 136 139 143 163 187 153 135 125 136 142 133 132 139 134 147 147 104 123 109 101 85 101 117 112 125 113 102 93 88 137 62 52 40 45 49 54 59 62 61 63 65
148 151 155 155 155 143 146 156 156 160 151 125 156 139 154 160 142 136 122 143 111 107 124 121 123 131 125 123 130 132 113 116 203 94 30 37 36 44 61 67 65 64 66
154 158 164 171 158 145 149 153 156 163 159 175 175 151 148 142 121 124 128 128 121 142 108 127 124 113 144 123 110 117 110 93 121 125 87 44 52 64 67 68 63 65 68
156 144 149 157 162 158 160 145 162 161 162 141 146 159 170 167 142 122 125 138 135 155 119 140 118 115 125 179 165 170 191 53 46 79 82 65 49 69 49 67 63 62 69
156 154 168 164 160 162 163 146 149 162 160 161 149 151 159 167 166 141 145 158 122 134 135 129 127 121 109 121 199 228 222 157 241 298 102 69 61 55 48 74 64 66 71
162 167 178 179 169 171 170 169 151 146 143 155 181 183 144 163 155 175 151 179 156 141 131 128 125 92 87 56 359 249 158 168 205 248 238 87 79 27 43 29 26 75 77
179 177 184 192 180 182 174 161 168 160 164 156 172 151 133 161 178 180 155 155 154 165 149 157 159 91 110 66 77 146 175 190 201 193 126 133 28 259 28 358 45 61 70
186 187 189 197 200 187 181 184 177 194 186 178 179 172 160 158 180 184 182 182 193 175 158 132 96 97 122 87 68 129 126 115 156 163 174 182 200 196 266 334 51 54 30
193 193 198 201 206 190 180 180 185 171 181 192 181 166 170 169 186 194 208 197 199 191 178 152 124 186 154 100 113 79 78 66 105 214 195 215 196 175 226 261 302 34 20
194 197 201 206 205 190 185 185 183 181 179 212 209 185 175 172 189 210 168 196 183 189 174 185 175 205 178 125 76 62 19 57 56 10 207 187 182 145 107 47 5 5 359
195 197 203 207 205 192 190 192 193 202 199 189 193 196 214 194 207 201 177 211 191 175 188 192 204 211 202 200 322 69 55 70 34 36 50 226 214 176 156 133 161 327 329
Height
1556 1558 1560 1562 1563 1564 1566 1565 1566 1567 1567 1568 1569 1570 1571 1572 1572 1572 1573 1574 1574 1575 1575 1575 1576 1576 1576 1576 1575 1575 1576 1577 1578 1578 1579 1579 1580 1580 1581 1581 1580 1581 1581
1556 1559 1561 1563 1564 1565 1566 1567 1567 1567 1568 1570 1570 1571 1573 1573 1573 1573 1574 1575 1576 1576 1577 1577 1578 1578 1578 1578 1577 1578 1578 1580 1582 1582 1582 1582 1582 1583 1583 1582 1582 1583 1584
1558 1560 1562 1564 1565 1566 1567 1568 1568 1568 1569 1570 1571 1572 1573 1574 1575 1575 1576 1577 1578 1578 1579 1579 1580 1580 1580 1581 1581 1582 1583 1583 1584 1585 1585 1584 1585 1585 1585 1585 1585 1586 1587
1558 1561 1564 1565 1567 1568 1569 1569 1569 1569 1570 1571 1572 1573 1574 1575 1576 1577 1577 1579 1580 1581 1581 1580 1581 1582 1582 1583 1585 1586 1586 1587 1588 1587 1587 1587 1586 1587 1588 1588 1587 1588 1589
1559 1562 1565 1566 1568 1569 1569 1570 1571 1571 1572 1573 1574 1575 1576 1577 1577 1578 1579 1580 1582 1582 1583 1582 1583 1584 1585 1587 1588 1587 1588 1589 1590 1589 1589 1589 1588 1589 1590 1590 1590 1591 1590
1561 1564 1566 1567 1568 1570 1571 1572 1572 1573 1574 1575 1576 1577 1578 1578 1579 1580 1581 1582 1583 1585 1585 1585 1586 1587 1588 1589 1590 1590 1591 1591 1592 1592 1591 1591 1591 1591 1592 1592 1592 1592 1592
1562 1565 1567 1569 1569 1571 1572 1573 1574 1575 1576 1577 1578 1579 1580 1580 1581 1582 1583 1584 1585 1586 1587 1587 1588 1589 1591 1592 1593 1592 1593 1594 1594 1593 1594 1593 1593 1593 1594 1594 1594 1594 1594
1562 1565 1567 1569 1571 1572 1573 1575 1576 1577 1578 1579 1580 1581 1581 1582 1583 1584 1586 1587 1588 1588 1588 1589 1590 1591 1593 1594 1595 1595 1595 1596 1597 1596 1596 1595 1595 1596 1596 1597 1596 1596 1596
1563 1566 1568 1570 1571 1572 1574 1575 1577 1579 1580 1581 1582 1583 1584 1585 1585 1587 1589 1589 1591 1591 1591 1592 1593 1594 1596 1596 1597 1598 1598 1599 1599 1599 1598 1598 1598 1598 1598 1598 1598 1598 1598
1566 1568 1570 1571 1572 1574 1575 1577 1578 1580 1582 1583 1584 1585 1586 1586 1587 1589 1590 1591 1594 1596 1595 1595 1596 1597 1597 1599 1600 1601 1600 1600 1600 1601 1600 1600 1600 1600 1600 1600 1600 1599 1599
1568 1569 1572 1573 1574 1575 1576 1578 1580 1582 1584 1585 1587 1588 1589 1589 1590 1590 1592 1596 1600 1602 1602 1601 1600 1600 1600 1601 1601 1603 1602 1602 1603 1603 1603 1602 1602 1601 1601 1601 1601 1600 1600
1568 1571 1572 1574 1575 1577 1578 1580 1583 1584 1586 1587 1588 1590 1590 1592 1592 1594 1597 1601 1603 1601 1602 1605 1605 1604 1603 1603 1603 1604 1604 1604 1605 1605 1604 1603 1603 1603 1602 1602 1602 1601 1601
1568 1571 1573 1576 1578 1580 1582 1583 1585 1586 1588 1589 1591 1593 1593 1594 1596 1598 1600 1603 1605 1601 1603 1606 1605 1605 1607 1606 1606 1606 1606 1607 1607 1607 1606 1605 1604 1604 1603 1603 1603 1602 1601
1570 1572 1574 1576 1578 1581 1583 1584 1586 1588 1590 1589 1593 1596 1595 1597 1599 1601 1603 1603 1607 1607 1606 1607 1606 1606 1606 1608 1608 1607 1608 1610 1609 1610 1608 1607 1606 1605 1604 1604 1604 1603 1603
1568 1571 1575 1579 1581 1583 1584 1586 1588 1589 1590 1592 1595 1597 1598 1598 1600 1603 1603 1603 1606 1608 1608 1607 1607 1608 1608 1610 1610 1611 1611 1612 1612 1612 1611 1609 1607 1606 1605 1605 1605 1605 1604
1569 1574 1576 1579 1582 1584 1585 1588 1589 1590 1594 1594 1596 1597 1598 1600 1602 1604 1604 1605 1605 1607 1607 1608 1608 1609 1611 1612 1612 1612 1613 1612 1614 1613 1612 1611 1609 1608 1606 1606 1606 1606 1606
1569 1573 1577 1580 1583 1585 1587 1589 1591 1593 1595 1595 1597 1599 1600 1602 1603 1605 1606 1607 1606 1607 1608 1610 1610 1611 1612 1612 1612 1612 1614 1613 1612 1613 1613 1612 1611 1610 1608 1608 1608 1608 1608
1569 1573 1577 1580 1584 1586 1588 1590 1593 1594 1597 1597 1598 1600 1601 1603 1604 1605 1608 1609 1609 1611 1610 1612 1612 1613 1613 1613 1613 1613 1613 1614 1613 1612 1613 1612 1612 1612 1611 1610 1610 1610 1610
1571 1574 1578 1581 1583 1586 1588 1590 1593 1594 1597 1599 1599 1601 1603 1604 1604 1606 1607 1609 1611 1611 1611 1613 1613 1613 1613 1614 1613 1613 1613 1614 1613 1612 1612 1613 1613 1613 1613 1613 1612 1612 1612
1573 1575 1578 1582 1584 1587 1589 1591 1594 1596 1597 1599 1601 1601 1602 1605 1606 1607 1608 1609 1611 1612 1613 1613 1614 1614 1614 1614 1614 1614 1613 1614 1614 1614 1615 1613 1614 1614 1614 1614 1614 1614 1613
1574 1576 1579 1580 1585 1587 1588 1590 1593 1596 1597 1599 1601 1602 1603 1604 1606 1606 1608 1609 1611 1612 1612 1613 1614 1614 1614 1614 1613 1612 1613 1614 1614 1615 1615 1615 1615 1615 1615 1615 1616 1615 1614
1572 1576 1579 1580 1583 1586 1589 1591 1593 1596 1597 1599 1601 1602 1603 1605 1605 1606 1608 1609 1611 1611 1612 1612 1614 1615 1615 1614 1614 1613 1614 1616 1615 1615 1615 1615 1616 1616 1616 1617 1617 1616 1615
1568 1574 1577 1580 1582 1586 1589 1592 1594 1595 1598 1599 1600 1601 1602 1605 1605 1607 1608 1609 1611 1612 1612 1613 1614 1615 1615 1614 1614 1614 1614 1615 1615 1616 1616 1616 1617 1617 1618 1618 1618 1616 1616
1565 1571 1574 1579 1582 1586 1588 1592 1595 1595 1596 1598 1600 1601 1602 1604 1605 1606 1607 1608 1610 1611 1613 1613 1614 1615 1615 1615 1615 1614 1615 1615 1616 1617 1616 1617 1617 1617 1617 1618 1617 1616 1616
1562 1566 1570 1575 1581 1585 1587 1590 1594 1596 1597 1598 1600 1602 1602 1603 1605 1605 1605 1607 1609 1610 1611 1613 1614 1615 1616 1616 1616 1615 1615 1616 1617 1616 1616 1617 1617 1616 1617 1617 1616 1616 1616
1561 1564 1569 1573 1579 1583 1586 1588 1591 1594 1597 1597 1598 1601 1602 1603 1604 1605 1605 1605 1607 1609 1611 1612 1613 1614 1615 1616 1617 1616 1617 1616 1617 1617 1617 1616 1616 1616 1617 1618 1617 1616 1616